Location: Nied?wied?
(53.3665°N, 14.8184°E)
Time: 22:22:27
(UTC+00:00)

Cosmos 1666 - Pass Details

Date: 03 March 2021
Orbit: 497 x 518 km, 82.5° (Epoch: 12 April)

Event Time Altitude Azimuth Distance (km) Brightness Sun altitude
Rises 18:30:10 0° 181° (S) 2,577 6.1 -16.7°
Reaches altitude 10° 18:32:16 10° 178° (S) 1,699 5.2 -17.0°
Maximum altitude 18:35:57 63° 97° (E) 564 2.5 -17.6°
Drops below altitude 10° 18:39:41 10° 17° (NNE) 1,721 5.3 -18.1°
Sets 18:41:49 0° 14° (NNE) 2,614 6.3 -18.4°
